User: anonymous   Login
Location: Niedergestelen
(46.3129°N, 7.7822°E)
Time: 12:26:03
(UTC+00:00)
Language:

Cosmos 1933 Rocket - Orbit

View from above orbital plane
View from above orbital plane
View from above satellite
View from above satellite

Ground track
Ground track

The orbit data is extracted from the following two-line orbital elements,

1 18959U 88020B   21061.90779335  .00000070  00000-0  56277-5 0  9992
2 18959  82.5347  84.8380 0016606 354.4973   5.6056 14.83468194760337
Epoch (UTC): 02 March 2021 21:47:13
Eccentricity: 0.0016606
inclination: 82.5347°
perigee height: 607 km
apogee height: 630 km
right ascension of ascending node: 84.8380°
argument of perigee: 354.4973°
revolutions per day: 14.83468194
mean anomaly at epoch: 5.6056°
orbit number at epoch: 76033

The dashed part of the orbit path shows where the satellite is in the earth's shadow,  

DLR